Home > Weather > Odesa > Past weeks

Flag for Ukraine Past Weather in Odesa, Ukraine — Yesterday and Last 2 Weeks

Now
59 °F

Fog.


Feels Like: 58 °F
Forecast: 57 / 71 °F
Wind: 6 mph from Northeast

Location: Odesa Airport

Current Time: May 26, 2016 at 7:47:57 AM

Latest Report: May 26, 2016 at 7:00 AM


Visibility: 3 mi

Pressure: 29.68 "Hg

Humidity: 94%

Dew Point: 57 °F

Location of OdesaLocation

Past Weather in Odesa — Graph

°F

Odesa Temperature Yesterday

Maximum temperature yesterday: 64 °F (at 12:30 AM)
Minimum temperature yesterday: 55 °F (at 10:30 PM)
Average temperature yesterday: 61 °F

High & Low Weather Summary for the Past Weeks

 TemperatureHumidityPressure
High77 °F (May 22, 2:30 PM)100% (May 11, 6:00 AM)30.07 "Hg (May 11, 6:00 AM)
Low43 °F (May 18, 5:00 AM)31% (May 22, 1:00 PM)29.45 "Hg (May 14, 1:00 AM)
Average60 °F78%29.81 "Hg
* Reported May 11 6:00 AM — May 26 6:30 AM, Odesa, Weather by CustomWeather, © 2016

Note: Actual official high and low records may vary slightly from our data, if they occured in-between our weather recording intervals... More about our weather records

Advertising

Odesa Weather History for the Previous 24 Hours

Scroll right to see more
 ConditionsComfort  
Time TempWeatherWind HumidityBarometerVisibility
6:30 AM
Thu, May 26
57 °FFog.6 mph100%29.68 "Hg2 mi
6:00 AM57 °FFog.6 mph94%29.68 "Hg2 mi
5:30 AM57 °FFog.6 mph100%29.68 "Hg2 mi
5:00 AM55 °FSprinkles. Fog.3 mph100%29.65 "Hg1 mi
4:30 AM57 °FFog.3 mph94%29.65 "Hg3 mi
4:00 AM57 °FPassing clouds.6 mph100%29.65 "Hg6 mi
3:30 AM57 °FPassing clouds.3 mph100%29.65 "Hg4 mi
3:00 AM59 °FSprinkles. Fog.3 mph94%29.65 "Hg3 mi
2:30 AM57 °FPassing clouds.3 mph94%29.65 "Hg5 mi
2:00 AM57 °FPassing clouds.6 mph94%29.65 "HgN/A
1:30 AM57 °FPassing clouds.No wind94%29.68 "HgN/A
1:00 AM55 °FPassing clouds.No wind100%29.65 "Hg4 mi
12:30 AM57 °FPassing clouds.1 mph100%29.65 "HgN/A
12:00 AM55 °FPassing clouds.No wind100%29.68 "Hg5 mi
11:30 PM
Wed, May 25
55 °FPassing clouds.1 mph100%29.65 "HgN/A
11:00 PM55 °FClear.1 mph94%29.65 "Hg10 mi
10:30 PM55 °FClear.3 mph100%29.65 "Hg10 mi
10:00 PM57 °FClear.No wind94%29.65 "Hg10 mi
9:30 PM57 °FBroken clouds.No wind94%29.65 "HgN/A
9:00 PM57 °FBroken clouds.1 mph94%29.65 "HgN/A
8:30 PM59 °FBroken clouds.No wind88%29.65 "HgN/A
8:00 PM61 °FBroken clouds.6 mph88%29.65 "HgN/A
7:30 PM63 °FBroken clouds.6 mph83%29.65 "HgN/A
7:00 PM63 °FBroken clouds.8 mph83%29.62 "HgN/A
6:30 PM63 °FScattered clouds.6 mph77%29.62 "HgN/A
6:00 PM63 °FScattered clouds.8 mph77%29.62 "HgN/A
5:30 PM64 °FSunny.8 mph73%29.62 "Hg10 mi
5:00 PM63 °FSunny.8 mph83%29.62 "Hg10 mi
4:30 PM63 °FSunny.8 mph83%29.62 "Hg10 mi
4:00 PM63 °FBroken clouds.10 mph77%29.62 "HgN/A
3:30 PM64 °FBroken clouds.13 mph83%29.62 "HgN/A
3:00 PM63 °FMore clouds than sun.13 mph83%29.62 "HgN/A
2:30 PM61 °FMore clouds than sun.6 mph88%29.62 "HgN/A
2:00 PM57 °FSprinkles. More clouds than sun.6 mph94%29.62 "HgN/A
1:30 PM57 °FThunderstorms. Broken clouds.3 mph94%29.65 "Hg1 mi
1:00 PM61 °FBroken clouds.3 mph83%29.62 "HgN/A
12:30 PM63 °FThundershowers. Broken clouds.8 mph83%29.62 "HgN/A
12:00 PM61 °FSprinkles. Broken clouds.10 mph94%29.62 "HgN/A
11:30 AM59 °FThunderstorms. Fog.10 mph94%29.62 "Hg2 mi
11:00 AM61 °FThunderstorms. More clouds than sun.13 mph94%29.62 "Hg2 mi
10:30 AM63 °FLots of rain. Broken clouds.15 mph88%29.59 "Hg1 mi
10:00 AM64 °FBroken clouds.15 mph83%29.59 "HgN/A
9:30 AM63 °FBroken clouds.13 mph94%29.59 "HgN/A
9:00 AM63 °FBroken clouds.13 mph88%29.59 "HgN/A
8:30 AM63 °FBroken clouds.13 mph88%29.59 "HgN/A
8:00 AM61 °FSprinkles. Broken clouds.10 mph88%29.59 "Hg2 mi
7:30 AM61 °FThundershowers. Mostly cloudy.10 mph83%29.59 "HgN/A
7:00 AM63 °FMostly cloudy.15 mph88%29.59 "HgN/A
Weather by CustomWeather, © 2016

See weather overviewHow to use our weather pages